{"data":{"norad_id":62709,"epoch":"2026-05-25T02:11:14.509824Z","epoch_age_seconds":74006,"freshness":"FRESH","line1":"1 62709U 25009DE  26145.09114016  .00001111  00000+0  10911-3 0  9998","line2":"2 62709  97.7028 223.8994 0001614 153.9640 206.1661 14.94153896 73918","mean_motion":14.94153896,"eccentricity":0.0001614,"inclination_deg":97.7028,"raan_deg":223.8994,"arg_perigee_deg":153.964,"mean_anomaly_deg":206.1661,"bstar":0.00010911,"rev_number":7391,"period_min":96.375614577255,"perigee_km":583.87636744984,"apogee_km":586.12406814375,"semimajor_km":6963.1372177968,"source":"CELESTRAK","updated_at":"2026-05-25T13:38:03.206811Z"}}